Time,TemperatureF,DewpointF,PressureIn,WindDirection,WindDirectionDegrees,WindSpeedMPH,WindSpeedGustMPH,Humidity,HourlyPrecipIn,Conditions,Clouds,dailyrainin,SoftwareType,DateUTC
2013-02-13 00:01:00,49.0,-99.9,30.35,WNW,287,4.0,5.0,-999,-99.99,,,-99.99,,2013-02-13 08:01:00,
2013-02-13 00:11:00,49.0,-99.9,30.35,NNW,339,4.0,5.0,-999,-99.99,,,-99.99,,2013-02-13 08:11:00,
2013-02-13 00:22:00,49.0,-99.9,30.35,NW,309,4.0,5.0,-999,-99.99,,,-99.99,,2013-02-13 08:22:00,
2013-02-13 00:32:00,49.0,-99.9,30.35,West,275,2.0,3.0,-999,-99.99,,,-99.99,,2013-02-13 08:32:00,
2013-02-13 00:43:00,49.0,-99.9,30.35,NW,324,4.0,5.0,-999,-99.99,,,-99.99,,2013-02-13 08:43:00,
2013-02-13 00:52:00,49.0,-99.9,30.35,WNW,303,5.0,6.0,-999,-99.99,,,-99.99,,2013-02-13 08:52:00,
2013-02-13 01:02:00,49.0,-99.9,30.35,NW,313,4.0,4.0,-999,-99.99,,,-99.99,,2013-02-13 09:02:00,
2013-02-13 01:11:00,49.0,-99.9,30.35,WNW,297,6.0,7.0,-999,-99.99,,,-99.99,,2013-02-13 09:11:00,
2013-02-13 01:21:00,49.0,-99.9,30.35,WNW,296,6.0,7.0,-999,-99.99,,,-99.99,,2013-02-13 09:21:00,
2013-02-13 01:32:00,49.0,-99.9,30.34,WNW,298,6.0,7.0,-999,-99.99,,,-99.99,,2013-02-13 09:32:00,
2013-02-13 01:42:00,49.0,-99.9,30.35,WNW,301,6.0,7.0,-999,-99.99,,,-99.99,,2013-02-13 09:42:00,
2013-02-13 01:52:00,48.0,-99.9,30.34,WNW,301,5.0,6.0,-999,-99.99,,,-99.99,,2013-02-13 09:52:00,
2013-02-13 02:01:00,49.0,-99.9,30.34,WNW,283,5.0,6.0,-999,-99.99,,,-99.99,,2013-02-13 10:01:00,
2013-02-13 02:11:00,48.0,-99.9,30.34,WNW,298,4.0,5.0,-999,-99.99,,,-99.99,,2013-02-13 10:11:00,
2013-02-13 02:22:00,48.0,-99.9,30.34,WNW,296,4.0,5.0,-999,-99.99,,,-99.99,,2013-02-13 10:22:00,
2013-02-13 02:32:00,48.0,-99.9,30.34,WNW,287,3.0,4.0,-999,-99.99,,,-99.99,,2013-02-13 10:32:00,
2013-02-13 02:42:00,48.0,-99.9,30.34,NW,311,4.0,4.0,-999,-99.99,,,-99.99,,2013-02-13 10:42:00,
2013-02-13 02:52:00,48.0,-99.9,30.34,WNW,293,3.0,4.0,-999,-99.99,,,-99.99,,2013-02-13 10:52:00,
2013-02-13 03:01:00,48.0,-99.9,30.33,WNW,286,2.0,4.0,-999,-99.99,,,-99.99,,2013-02-13 11:01:00,
2013-02-13 03:11:00,48.0,-99.9,30.33,NW,311,4.0,4.0,-999,-99.99,,,-99.99,,2013-02-13 11:11:00,
2013-02-13 03:22:00,48.0,-99.9,30.33,West,275,3.0,4.0,-999,-99.99,,,-99.99,,2013-02-13 11:22:00,
2013-02-13 03:32:00,48.0,-99.9,30.32,WNW,296,2.0,4.0,-999,-99.99,,,-99.99,,2013-02-13 11:32:00,
2013-02-13 03:42:00,48.0,-99.9,30.32,NW,322,1.0,3.0,-999,-99.99,,,-99.99,,2013-02-13 11:42:00,
2013-02-13 03:52:00,48.0,-99.9,30.32,NNW,328,1.0,2.0,-999,-99.99,,,-99.99,,2013-02-13 11:52:00,
2013-02-13 04:02:00,48.0,-99.9,30.32,West,268,1.0,3.0,-999,-99.99,,,-99.99,,2013-02-13 12:02:00,
2013-02-13 04:11:00,48.0,-99.9,30.32,West,280,4.0,5.0,-999,-99.99,,,-99.99,,2013-02-13 12:11:00,
2013-02-13 04:22:00,48.0,-99.9,30.32,WNW,283,5.0,7.0,-999,-99.99,,,-99.99,,2013-02-13 12:22:00,
2013-02-13 04:32:00,48.0,-99.9,30.32,WNW,283,5.0,8.0,-999,-99.99,,,-99.99,,2013-02-13 12:32:00,
2013-02-13 04:42:00,48.0,-99.9,30.32,WNW,296,4.0,6.0,-999,-99.99,,,-99.99,,2013-02-13 12:42:00,
2013-02-13 04:52:00,48.0,-99.9,30.32,West,272,2.0,5.0,-999,-99.99,,,-99.99,,2013-02-13 12:52:00,
2013-02-13 05:02:00,48.0,-99.9,30.32,NW,318,4.0,5.0,-999,-99.99,,,-99.99,,2013-02-13 13:02:00,
2013-02-13 05:11:00,48.0,-99.9,30.32,NNW,335,4.0,7.0,-999,-99.99,,,-99.99,,2013-02-13 13:11:00,
2013-02-13 05:21:00,48.0,-99.9,30.33,North,4,5.0,7.0,-999,-99.99,,,-99.99,,2013-02-13 13:21:00,
2013-02-13 05:32:00,48.0,-99.9,30.33,NE,47,3.0,5.0,-999,-99.99,,,-99.99,,2013-02-13 13:32:00,
2013-02-13 05:42:00,48.0,-99.9,30.33,ENE,73,3.0,3.0,-999,-99.99,,,-99.99,,2013-02-13 13:42:00,
2013-02-13 05:52:00,47.0,-99.9,30.33,ENE,74,2.0,4.0,-999,-99.99,,,-99.99,,2013-02-13 13:52:00,
2013-02-13 06:01:00,47.0,-99.9,30.32,ENE,75,2.0,2.0,-999,-99.99,,,-99.99,,2013-02-13 14:01:00,
2013-02-13 06:11:00,47.0,-99.9,30.33,ENE,64,4.0,5.0,-999,-99.99,,,-99.99,,2013-02-13 14:11:00,
2013-02-13 06:22:00,47.0,-99.9,30.33,ENE,59,3.0,5.0,-999,-99.99,,,-99.99,,2013-02-13 14:22:00,
2013-02-13 06:32:00,47.0,-99.9,30.33,NNE,18,0.0,2.0,-999,-99.99,,,-99.99,,2013-02-13 14:32:00,
2013-02-13 06:42:00,47.0,-99.9,30.33,West,267,0.0,1.0,-999,-99.99,,,-99.99,,2013-02-13 14:42:00,
2013-02-13 06:52:00,46.0,-99.9,30.33,SW,229,1.0,1.0,-999,-99.99,,,-99.99,,2013-02-13 14:52:00,
2013-02-13 07:02:00,46.0,-99.9,30.33,West,262,2.0,2.0,-999,-99.99,,,-99.99,,2013-02-13 15:02:00,
2013-02-13 07:11:00,46.0,-99.9,30.33,WSW,258,3.0,3.0,-999,-99.99,,,-99.99,,2013-02-13 15:11:00,
2013-02-13 07:22:00,46.0,-99.9,30.33,West,271,1.0,2.0,-999,-99.99,,,-99.99,,2013-02-13 15:22:00,
2013-02-13 07:32:00,46.0,-99.9,30.33,West,274,2.0,3.0,-999,-99.99,,,-99.99,,2013-02-13 15:32:00,
2013-02-13 07:42:00,46.0,-99.9,30.34,WNW,293,2.0,4.0,-999,-99.99,,,-99.99,,2013-02-13 15:42:00,
2013-02-13 07:52:00,46.0,-99.9,30.34,WNW,283,2.0,3.0,-999,-99.99,,,-99.99,,2013-02-13 15:52:00,
2013-02-13 08:02:00,46.0,-99.9,30.34,WNW,291,0.0,2.0,-999,-99.99,,,-99.99,,2013-02-13 16:02:00,
2013-02-13 08:12:00,46.0,-99.9,30.35,NW,318,0.0,1.0,-999,-99.99,,,-99.99,,2013-02-13 16:12:00,
2013-02-13 08:21:00,46.0,-99.9,30.35,NNE,32,1.0,1.0,-999,-99.99,,,-99.99,,2013-02-13 16:21:00,
2013-02-13 08:32:00,46.0,-99.9,30.35,NNE,29,2.0,2.0,-999,-99.99,,,-99.99,,2013-02-13 16:32:00,
2013-02-13 08:42:00,46.0,-99.9,30.35,NE,49,2.0,3.0,-999,-99.99,,,-99.99,,2013-02-13 16:42:00,
2013-02-13 08:52:00,45.0,-99.9,30.35,ENE,68,2.0,3.0,-999,-99.99,,,-99.99,,2013-02-13 16:52:00,
2013-02-13 09:02:00,45.0,-99.9,30.35,ENE,78,1.0,3.0,-999,-99.99,,,-99.99,,2013-02-13 17:02:00,
2013-02-13 09:11:00,45.0,-99.9,30.35,ENE,63,2.0,3.0,-999,-99.99,,,-99.99,,2013-02-13 17:11:00,
2013-02-13 09:21:00,45.0,-99.9,30.35,NE,45,2.0,3.0,-999,-99.99,,,-99.99,,2013-02-13 17:21:00,
2013-02-13 09:32:00,46.0,-99.9,30.35,ENE,74,1.0,2.0,-999,-99.99,,,-99.99,,2013-02-13 17:32:00,
2013-02-13 09:42:00,46.0,-99.9,30.35,ESE,119,2.0,3.0,-999,-99.99,,,-99.99,,2013-02-13 17:42:00,
2013-02-13 09:52:00,45.0,-99.9,30.36,East,99,2.0,4.0,-999,-99.99,,,-99.99,,2013-02-13 17:52:00,
2013-02-13 10:02:00,46.0,-99.9,30.36,SSE,147,2.0,5.0,-999,-99.99,,,-99.99,,2013-02-13 18:02:00,
2013-02-13 10:11:00,46.0,-99.9,30.36,South,181,4.0,5.0,-999,-99.99,,,-99.99,,2013-02-13 18:11:00,
2013-02-13 10:23:00,46.0,-99.9,30.36,South,177,4.0,6.0,-999,-99.99,,,-99.99,,2013-02-13 18:23:00,
2013-02-13 10:32:00,46.0,-99.9,30.36,SE,142,1.0,3.0,-999,-99.99,,,-99.99,,2013-02-13 18:32:00,
2013-02-13 10:42:00,46.0,-99.9,30.37,ENE,59,3.0,4.0,-999,-99.99,,,-99.99,,2013-02-13 18:42:00,
2013-02-13 10:52:00,46.0,-99.9,30.37,ENE,70,2.0,3.0,-999,-99.99,,,-99.99,,2013-02-13 18:52:00,
2013-02-13 11:01:00,46.0,-99.9,30.37,ESE,106,2.0,3.0,-999,-99.99,,,-99.99,,2013-02-13 19:01:00,
2013-02-13 11:11:00,47.0,-99.9,30.37,East,81,0.0,2.0,-999,-99.99,,,-99.99,,2013-02-13 19:11:00,
2013-02-13 11:21:00,47.0,-99.9,30.37,North,9,2.0,2.0,-999,-99.99,,,-99.99,,2013-02-13 19:21:00,
2013-02-13 11:32:00,47.0,-99.9,30.36,SE,139,-999.0,5.0,-999,-99.99,,,-99.99,,2013-02-13 19:32:00,
2013-02-13 11:42:00,46.0,-99.9,30.36,East,85,3.0,4.0,-999,-99.99,,,-99.99,,2013-02-13 19:42:00,
2013-02-13 11:52:00,46.0,-99.9,30.36,ESE,106,4.0,6.0,-999,-99.99,,,-99.99,,2013-02-13 19:52:00,
2013-02-13 12:02:00,47.0,-99.9,30.35,SSE,149,3.0,5.0,-999,-99.99,,,-99.99,,2013-02-13 20:02:00,
2013-02-13 12:11:00,47.0,-99.9,30.35,SE,139,3.0,5.0,-999,-99.99,,,-99.99,,2013-02-13 20:11:00,
2013-02-13 12:22:00,47.0,-99.9,30.35,South,173,5.0,6.0,-999,-99.99,,,-99.99,,2013-02-13 20:22:00,
2013-02-13 12:32:00,47.0,-99.9,30.34,SSE,164,5.0,7.0,-999,-99.99,,,-99.99,,2013-02-13 20:32:00,
2013-02-13 12:42:00,47.0,-99.9,30.34,SSE,153,3.0,6.0,-999,-99.99,,,-99.99,,2013-02-13 20:42:00,
2013-02-13 12:52:00,48.0,-99.9,30.34,ENE,77,2.0,4.0,-999,-99.99,,,-99.99,,2013-02-13 20:52:00,
2013-02-13 13:02:00,48.0,-99.9,30.33,NW,312,3.0,6.0,-999,-99.99,,,-99.99,,2013-02-13 21:02:00,
2013-02-13 13:11:00,47.0,-99.9,30.33,NW,318,7.0,9.0,-999,-99.99,,,-99.99,,2013-02-13 21:11:00,
2013-02-13 13:22:00,47.0,-99.9,30.32,NW,312,7.0,9.0,-999,-99.99,,,-99.99,,2013-02-13 21:22:00,
2013-02-13 13:32:00,48.0,-99.9,30.32,NW,304,7.0,9.0,-999,-99.99,,,-99.99,,2013-02-13 21:32:00,
2013-02-13 13:43:00,48.0,-99.9,30.31,NW,307,7.0,9.0,-999,-99.99,,,-99.99,,2013-02-13 21:43:00,
2013-02-13 13:52:00,48.0,-99.9,30.31,NNW,335,5.0,9.0,-999,-99.99,,,-99.99,,2013-02-13 21:52:00,
2013-02-13 14:02:00,48.0,-99.9,30.30,NW,305,8.0,10.0,-999,-99.99,,,-99.99,,2013-02-13 22:02:00,
2013-02-13 14:11:00,49.0,-99.9,30.29,NW,311,9.0,10.0,-999,-99.99,,,-99.99,,2013-02-13 22:11:00,
2013-02-13 14:21:00,49.0,-99.9,30.29,NW,309,8.0,11.0,-999,-99.99,,,-99.99,,2013-02-13 22:21:00,
2013-02-13 14:32:00,49.0,-99.9,30.29,WNW,285,7.0,9.0,-999,-99.99,,,-99.99,,2013-02-13 22:32:00,
2013-02-13 14:42:00,50.0,-99.9,30.28,WNW,286,8.0,10.0,-999,-99.99,,,-99.99,,2013-02-13 22:42:00,
2013-02-13 14:52:00,49.0,-99.9,30.28,WNW,289,9.0,11.0,-999,-99.99,,,-99.99,,2013-02-13 22:52:00,
2013-02-13 15:02:00,49.0,-99.9,30.28,West,274,10.0,12.0,-999,-99.99,,,-99.99,,2013-02-13 23:02:00,
2013-02-13 15:11:00,50.0,-99.9,30.28,West,272,9.0,11.0,-999,-99.99,,,-99.99,,2013-02-13 23:11:00,
2013-02-13 15:22:00,50.0,-99.9,30.28,West,278,10.0,13.0,-999,-99.99,,,-99.99,,2013-02-13 23:22:00,
2013-02-13 15:32:00,51.0,-99.9,30.27,WNW,282,11.0,16.0,-999,-99.99,,,-99.99,,2013-02-13 23:32:00,
2013-02-13 15:42:00,50.0,-99.9,30.27,WNW,290,12.0,16.0,-999,-99.99,,,-99.99,,2013-02-13 23:42:00,
2013-02-13 15:53:00,51.0,-99.9,30.27,WNW,297,13.0,16.0,-999,-99.99,,,-99.99,,2013-02-13 23:53:00,
2013-02-13 16:02:00,50.0,-99.9,30.27,WNW,292,10.0,14.0,-999,-99.99,,,-99.99,,2013-02-14 00:02:00,
2013-02-13 16:11:00,51.0,-99.9,30.27,WNW,300,9.0,14.0,-999,-99.99,,,-99.99,,2013-02-14 00:11:00,
2013-02-13 16:22:00,50.0,-99.9,30.27,WNW,291,11.0,14.0,-999,-99.99,,,-99.99,,2013-02-14 00:22:00,
2013-02-13 16:32:00,50.0,-99.9,30.27,NW,305,13.0,16.0,-999,-99.99,,,-99.99,,2013-02-14 00:32:00,
2013-02-13 16:43:00,51.0,-99.9,30.27,WNW,300,10.0,12.0,-999,-99.99,,,-99.99,,2013-02-14 00:43:00,
2013-02-13 16:52:00,51.0,-99.9,30.27,WNW,295,9.0,12.0,-999,-99.99,,,-99.99,,2013-02-14 00:52:00,
2013-02-13 17:01:00,51.0,-99.9,30.26,WNW,294,11.0,13.0,-999,-99.99,,,-99.99,,2013-02-14 01:01:00,
2013-02-13 17:11:00,51.0,-99.9,30.26,NW,309,10.0,13.0,-999,-99.99,,,-99.99,,2013-02-14 01:11:00,
2013-02-13 17:21:00,51.0,-99.9,30.25,WNW,300,11.0,12.0,-999,-99.99,,,-99.99,,2013-02-14 01:21:00,
2013-02-13 17:32:00,51.0,-99.9,30.25,NW,309,11.0,13.0,-999,-99.99,,,-99.99,,2013-02-14 01:32:00,
2013-02-13 17:42:00,51.0,-99.9,30.25,NW,308,10.0,12.0,-999,-99.99,,,-99.99,,2013-02-14 01:42:00,
2013-02-13 17:52:00,51.0,-99.9,30.25,WNW,299,10.0,13.0,-999,-99.99,,,-99.99,,2013-02-14 01:52:00,
2013-02-13 18:02:00,51.0,-99.9,30.25,NW,308,10.0,13.0,-999,-99.99,,,-99.99,,2013-02-14 02:02:00,
2013-02-13 18:11:00,51.0,-99.9,30.24,WNW,301,8.0,11.0,-999,-99.99,,,-99.99,,2013-02-14 02:11:00,
2013-02-13 18:21:00,50.0,-99.9,30.24,WNW,301,9.0,12.0,-999,-99.99,,,-99.99,,2013-02-14 02:21:00,
2013-02-13 18:32:00,50.0,-99.9,30.24,WNW,296,8.0,12.0,-999,-99.99,,,-99.99,,2013-02-14 02:32:00,
2013-02-13 18:42:00,50.0,-99.9,30.24,WNW,296,8.0,12.0,-999,-99.99,,,-99.99,,2013-02-14 02:42:00,
2013-02-13 18:52:00,50.0,-99.9,30.24,WNW,296,8.0,12.0,-999,-99.99,,,-99.99,,2013-02-14 02:52:00,
2013-02-13 19:02:00,50.0,-99.9,30.24,NW,314,11.0,15.0,-999,-99.99,,,-99.99,,2013-02-14 03:02:00,
2013-02-13 19:12:00,50.0,-99.9,30.24,NW,304,12.0,14.0,-999,-99.99,,,-99.99,,2013-02-14 03:12:00,
2013-02-13 19:22:00,50.0,-99.9,30.24,WNW,299,11.0,14.0,-999,-99.99,,,-99.99,,2013-02-14 03:22:00,
2013-02-13 19:32:00,50.0,-99.9,30.24,WNW,302,12.0,14.0,-999,-99.99,,,-99.99,,2013-02-14 03:32:00,
2013-02-13 19:42:00,50.0,-99.9,30.24,NW,313,12.0,15.0,-999,-99.99,,,-99.99,,2013-02-14 03:42:00,
2013-02-13 19:52:00,50.0,-99.9,30.24,NW,308,12.0,15.0,-999,-99.99,,,-99.99,,2013-02-14 03:52:00,
2013-02-13 20:01:00,50.0,-99.9,30.24,NW,311,11.0,13.0,-999,-99.99,,,-99.99,,2013-02-14 04:01:00,
2013-02-13 20:12:00,50.0,-99.9,30.24,NW,306,12.0,15.0,-999,-99.99,,,-99.99,,2013-02-14 04:12:00,
2013-02-13 20:21:00,50.0,-99.9,30.24,NW,309,11.0,14.0,-999,-99.99,,,-99.99,,2013-02-14 04:21:00,
2013-02-13 20:32:00,50.0,-99.9,30.24,NW,314,10.0,14.0,-999,-99.99,,,-99.99,,2013-02-14 04:32:00,
2013-02-13 20:42:00,50.0,-99.9,30.24,NW,308,10.0,13.0,-999,-99.99,,,-99.99,,2013-02-14 04:42:00,
2013-02-13 20:52:00,50.0,-99.9,30.24,NW,310,10.0,12.0,-999,-99.99,,,-99.99,,2013-02-14 04:52:00,
2013-02-13 21:02:00,50.0,-99.9,30.24,NW,311,9.0,12.0,-999,-99.99,,,-99.99,,2013-02-14 05:02:00,
2013-02-13 21:11:00,50.0,-99.9,30.24,NW,317,7.0,10.0,-999,-99.99,,,-99.99,,2013-02-14 05:11:00,
2013-02-13 21:22:00,50.0,-99.9,30.24,NW,314,7.0,10.0,-999,-99.99,,,-99.99,,2013-02-14 05:22:00,
2013-02-13 21:32:00,50.0,-99.9,30.24,NW,318,7.0,9.0,-999,-99.99,,,-99.99,,2013-02-14 05:32:00,
2013-02-13 21:42:00,50.0,-99.9,30.24,NW,312,6.0,8.0,-999,-99.99,,,-99.99,,2013-02-14 05:42:00,
2013-02-13 21:52:00,50.0,-99.9,30.24,NW,312,6.0,7.0,-999,-99.99,,,-99.99,,2013-02-14 05:52:00,
2013-02-13 22:02:00,50.0,-99.9,30.24,NW,310,4.0,6.0,-999,-99.99,,,-99.99,,2013-02-14 06:02:00,
2013-02-13 22:11:00,50.0,-99.9,30.24,NW,326,4.0,5.0,-999,-99.99,,,-99.99,,2013-02-14 06:11:00,
2013-02-13 22:22:00,50.0,-99.9,30.24,NW,312,2.0,4.0,-999,-99.99,,,-99.99,,2013-02-14 06:22:00,
2013-02-13 22:32:00,50.0,-99.9,30.24,WNW,288,0.0,1.0,-999,-99.99,,,-99.99,,2013-02-14 06:32:00,
2013-02-13 22:42:00,50.0,-99.9,30.24,SSW,196,-999.0,1.0,-999,-99.99,,,-99.99,,2013-02-14 06:42:00,
2013-02-13 22:52:00,50.0,-99.9,30.24,SW,233,0.0,1.0,-999,-99.99,,,-99.99,,2013-02-14 06:52:00,
2013-02-13 23:01:00,50.0,-99.9,30.24,WSW,243,2.0,3.0,-999,-99.99,,,-99.99,,2013-02-14 07:01:00,
2013-02-13 23:11:00,50.0,-99.9,30.25,West,261,2.0,3.0,-999,-99.99,,,-99.99,,2013-02-14 07:11:00,
2013-02-13 23:22:00,50.0,-99.9,30.24,NW,310,0.0,1.0,-999,-99.99,,,-99.99,,2013-02-14 07:22:00,
2013-02-13 23:32:00,50.0,-99.9,30.24,West,263,2.0,2.0,-999,-99.99,,,-99.99,,2013-02-14 07:32:00,
2013-02-13 23:42:00,50.0,-99.9,30.24,SE,137,2.0,2.0,-999,-99.99,,,-99.99,,2013-02-14 07:42:00,
2013-02-13 23:52:00,50.0,-99.9,30.24,ESE,119,2.0,3.0,-999,-99.99,,,-99.99,,2013-02-14 07:52:00,